Villars, Switzerland 16 day weather forecast

Slopes altitude range 1115 m - 2120m

Number of lifts: 36 Pistes: 100km

In some cases the lift and piste totals shown are for the ski domain (e.g. Three Valleys) rather than individual resort (e.g. Courchevel)

Overview

The 16 day weather forecast is fully updated 4 times every day.

    • Thu 21 FEB 2019
    • Thu 21
    • 3C 10C
    • Fri 22 FEB 2019
    • Fri 22
    • 1C 9C
    • Sat 23 FEB 2019
    • Sat 23
    • 0C 8C
    • Sun 24 FEB 2019
    • Sun 24
    • 0C 9C
    • Mon 25 FEB 2019
    • Mon 25
    • 0C 9C
    • Tue 26 FEB 2019
    • Tue 26
    • 1C 11C
    • Wed 27 FEB 2019
    • Wed 27
    • 2C 14C
    • Thu 28 FEB 2019
    • Thu 28
    • 4C 12C
    • Fri 01 MAR 2019
    • Fri 01
    • 3C 14C
    • Sat 02 MAR 2019
    • Sat 02
    • 3C 13C
    • Sun 03 MAR 2019
    • Sun 03
    • 3C 8C
    • Mon 04 MAR 2019
    • Mon 04
    • 2C 15C
    • Tue 05 MAR 2019
    • Tue 05
    • 5C 8C
    • Wed 06 MAR 2019
    • Wed 06
    • 3C 6C
    • Thu 07 MAR 2019
    • Thu 07
    • -4C 1C
    • Fri 08 MAR 2019
    • Fri 08
    • -7C 1C

Date:

Time Type 0°C level Temp Chill Snow Cloud Speed Gust Dir Press
18:00 2253m 10°C 10_1 0cm 2% 1mph 2mph 1030mB
21:00 2182m 2°C 2_1 0cm 0% 1mph 2mph 1032mB
0:00 2240m 2°C 2_1 0cm 0% 1mph 2mph 1033mB
3:00 2277m 1°C 1_2 0cm 0% 2mph 3mph 1033mB
6:00 2288m 1°C 1_4 0cm 0% 4mph 6mph 1033mB
9:00 2945m 1°C 1_7 0cm 0% 7mph 17mph 1032mB
12:00 2798m 9°C 9_9 0cm 0% 9mph 16mph 1031mB
15:00 2788m 9°C 9_9 0cm 0% 9mph 17mph 1031mB
18:00 3225m 9°C 9_9 0cm 6% 9mph 26mph 1032mB
21:00 3456m 4°C 4_12 0cm 44% 12mph 31mph 1032mB
0:00 3591m 3°C 3_9 0cm 27% 9mph 29mph 1032mB
3:00 3506m 2°C 2_7 0cm 24% 7mph 24mph 1032mB
6:00 2714m 1°C 1_5 0cm 27% 5mph 15mph 1032mB
9:00 3452m 0°C 0_4 0cm 19% 4mph 9mph 1032mB
12:00 3445m 8°C 8_6 0cm 9% 6mph 13mph 1030mB
15:00 3383m 8°C 8_6 0cm 0% 6mph 14mph 1029mB
18:00 3494m 8°C 8_5 0cm 0% 5mph 6mph 1031mB
21:00 1972m 0°C 0_4 0cm 11% 4mph 5mph 1032mB
0:00 1900m 0°C 0_4 0cm 5% 4mph 4mph 1033mB
3:00 1873m 0°C 0_3 0cm 0% 3mph 4mph 1033mB
6:00 1860m 0°C 0_2 0cm 3% 2mph 3mph 1033mB
9:00 3400m 0°C 0_2 0cm 22% 2mph 3mph 1034mB
12:00 3528m 9°C 9_4 0cm 13% 4mph 7mph 1032mB
15:00 3519m 10°C 10_6 0cm 0% 6mph 14mph 1032mB
18:00 3511m 10°C 10_5 0cm 0% 5mph 15mph 1033mB
21:00 3419m 1°C 1_5 0cm 0% 5mph 11mph 1034mB
0:00 2687m 0°C 0_5 0cm 0% 5mph 10mph 1034mB
3:00 1843m 0°C 0_4 0cm 59% 4mph 5mph 1034mB
6:00 1800m 0°C 0_5 0cm 30% 5mph 15mph 1034mB
9:00 3332m 0°C 0_10 0cm 0% 10mph 28mph 1033mB
12:00 3331m 9°C 9_11 0cm 7% 11mph 24mph 1032mB
15:00 3165m 9°C 9_7 0cm 0% 7mph 14mph 1031mB
18:00 2945m 9°C 9_3 0cm 0% 3mph 4mph 1033mB
21:00 2779m 2°C 2_2 0cm 0% 2mph 3mph 1035mB
0:00 2767m 2°C 2_2 0cm 0% 2mph 3mph 1035mB
3:00 3263m 2°C 2_1 0cm 0% 1mph 2mph 1035mB
6:00 3392m 2°C 2_2 0cm 0% 2mph 3mph 1034mB
9:00 3407m 1°C 1_3 0cm 0% 3mph 6mph 1033mB
12:00 3401m 11°C 11_6 0cm 25% 6mph 9mph 1031mB
15:00 3418m 11°C 11_7 0cm 100% 7mph 13mph 1029mB
18:00 3400m 11°C 11_4 0cm 100% 4mph 6mph 1030mB
21:00 3501m 3°C 3_4 0cm 96% 4mph 7mph 1030mB
0:00 3574m 2°C 2_3 0cm 59% 3mph 4mph 1029mB
3:00 3546m 2°C 2_3 0cm 0% 3mph 3mph 1028mB
6:00 3510m 2°C 2_2 0cm 0% 2mph 3mph 1028mB
9:00 3530m 2°C 2_2 0cm 0% 2mph 3mph 1026mB
12:00 3513m 14°C 14_1 0cm 0% 1mph 3mph 1024mB
15:00 3485m 15°C 15_1 0cm 1% 1mph 3mph 1023mB
18:00 3483m 15°C 15_2 0cm 2% 2mph 3mph 1023mB
21:00 3382m 5°C 5_3 0cm 6% 3mph 4mph 1024mB
0:00 3228m 5°C 5_5 0cm 13% 5mph 7mph 1024mB
3:00 3076m 4°C 4_5 0cm 12% 5mph 7mph 1024mB
6:00 2966m 4°C 4_4 0cm 6% 4mph 6mph 1025mB
9:00 2947m 4°C 4_4 0cm 0% 4mph 8mph 1025mB
12:00 2836m 12°C 12_5 0cm 0% 5mph 8mph 1024mB
15:00 2768m 13°C 13_5 0cm 0% 5mph 6mph 1023mB
18:00 2667m 13°C 13_2 0cm 0% 2mph 3mph 1025mB
21:00 2441m 4°C 4_1 0cm 2% 1mph 2mph 1026mB
0:00 2380m 3°C 3_0 0cm 49% 0mph 1mph 1026mB
3:00 2302m 4°C 4_2 0cm 34% 2mph 3mph 1025mB
6:00 2230m 3°C 3_2 0cm 22% 2mph 3mph 1026mB
9:00 2274m 3°C 3_1 0cm 37% 1mph 1mph 1025mB
12:00 2280m 14°C 14_2 0cm 57% 2mph 3mph 1024mB
15:00 2281m 14°C 14_2 0cm 48% 2mph 3mph 1022mB
18:00 2225m 14°C 14_3 0cm 40% 3mph 4mph 1024mB
21:00 2256m 5°C 5_1 0cm 42% 1mph 1mph 1024mB
0:00 2297m 4°C 4_2 0cm 50% 2mph 3mph 1024mB
3:00 2166m 4°C 4_4 0cm 46% 4mph 5mph 1023mB
6:00 2105m 3°C 3_6 0cm 51% 6mph 11mph 1023mB
9:00 2130m 3°C 3_12 0cm 95% 12mph 24mph 1021mB
12:00 1995m 13°C 13_16 0cm 72% 16mph 26mph 1019mB
15:00 2029m 13°C 13_17 0cm 41% 17mph 30mph 1017mB
18:00 1949m 13°C 13_15 0cm 60% 15mph 34mph 1018mB
21:00 1957m 8°C 8_19 0cm 97% 19mph 38mph 1018mB
0:00 1889m 8°C 8_18 0cm 97% 18mph 36mph 1019mB
3:00 1517m 6°C 6_8 0cm 100% 8mph 25mph 1021mB
6:00 1187m 3°C 3_6 0cm 99% 6mph 16mph 1023mB
9:00 1285m 3°C 3_12 0cm 92% 12mph 20mph 1025mB
12:00 1486m 8°C 8_14 0cm 91% 14mph 21mph 1025mB
Morning 0.0416667mm 0 2426m 3°C 3_5 0cm 76% 5mph 12mph 1023mB
Afternoon 0mm 0 2520m 15°C 15_15 0cm 84% 15mph 36mph 1012mB
Morning 0.958333mm 3.3125 1644m 6°C 6_12 0cm 98% 12mph 29mph 1014mB
Afternoon 0.265625mm 2.5 1627m 8°C 8_17 0cm 90% 17mph 32mph 1011mB
Morning 0.890625mm 2.875 1564m 5°C 5_12 0cm 95% 12mph 29mph 1007mB
Afternoon 0.375mm 3.25 1352m 6°C 6_15 26cm 83% 15mph 27mph 1013mB
Morning 0.213542mm 1.125 870m 0°C 0_3 9cm 99% 3mph 7mph 1018mB
Afternoon 0.151042mm 1.5 847m 1°C 1_5 12cm 58% 5mph 9mph 1025mB
Morning 0.380208mm 3.8125 1m -6°C -6_2 30cm 96% 2mph 2mph 1034mB
Afternoon 0.015625mm 0.0625 815m 1°C 1_5 0cm 44% 5mph 9mph 1035mB
Morning 0.0104167mm 0.125 1m -5°C -5_2 0cm 58% 2mph 2mph 1036mB
Afternoon 0mm 0 1883m 7°C 7_7 0cm 50% 7mph 14mph 1028mB

16 day outlook at a glance

Forecast issued: 21/02/2019 17:41:34

Chat

Your comments and questions. In a resort? Let us know what it's like!


Characters left 250

For terms and conditions see Readers Comments on the Cookie and privacy policy page.